N123SX KSAV-KATL

Flight info

Callsign N123SX
Flight time 0h 55m
Altitude 6500
Route NEW
Aircraft SF50/L-V/N

Departure

Time 2026-05-07 23:27
Airport Savannah Hilton Head International Airport (KSAV)

Arrival

Time 2026-05-08 00:22
Airport Hartsfield Jackson Atlanta International Airport (KATL)
Time Latitude Longitude Altitude Speed Heading
2026-05-07 22:46 32.12242 -81.19645 44 ft 0 kts
2026-05-07 23:11 32.12251 -81.19647 44 ft 3 kts 294°
2026-05-07 23:11 32.12258 -81.19736 42 ft 14 kts 288°
2026-05-07 23:12 32.12332 -81.19810 44 ft 15 kts 353°
2026-05-07 23:12 32.12402 -81.19811 46 ft 3 kts 356°
2026-05-07 23:12 32.12441 -81.19812 47 ft 8 kts 358°
2026-05-07 23:12 32.12540 -81.19813 48 ft 19 kts
2026-05-07 23:13 32.12637 -81.19814 49 ft 12 kts 359°
2026-05-07 23:13 32.12691 -81.19767 50 ft 17 kts 78°
2026-05-07 23:13 32.12692 -81.19600 55 ft 29 kts 90°
2026-05-07 23:13 32.12689 -81.19381 58 ft 27 kts 89°
2026-05-07 23:14 32.12687 -81.19173 59 ft 17 kts 90°
2026-05-07 23:14 32.12686 -81.19026 61 ft 19 kts 90°
2026-05-07 23:14 32.12703 -81.18892 59 ft 7 kts 37°
2026-05-07 23:14 32.12722 -81.18880 59 ft 0 kts
2026-05-07 23:24 32.12729 -81.18880 59 ft 5 kts 359°
2026-05-07 23:25 32.12751 -81.18879 59 ft 0 kts
2026-05-07 23:26 32.12847 -81.18908 55 ft 16 kts 285°
2026-05-07 23:26 32.12848 -81.18940 59 ft 0 kts 264°
2026-05-07 23:26 32.12852 -81.19251 60 ft 77 kts 268°
2026-05-07 23:27 32.13419 -81.21124 449 ft 160 kts 294°
2026-05-07 23:27 32.13996 -81.22377 586 ft 191 kts 294°
2026-05-07 23:27 32.14619 -81.23716 734 ft 177 kts 295°
2026-05-07 23:28 32.15233 -81.24960 833 ft 171 kts 299°
2026-05-07 23:28 32.15878 -81.26282 945 ft 187 kts 294°
2026-05-07 23:28 32.16491 -81.27624 1069 ft 187 kts 294°
2026-05-07 23:28 32.17152 -81.28965 1106 ft 195 kts 295°
2026-05-07 23:29 32.17842 -81.30402 1102 ft 210 kts 294°
2026-05-07 23:29 32.18586 -81.31969 1117 ft 226 kts 296°
2026-05-07 23:29 32.19416 -81.33599 1105 ft 235 kts 297°
2026-05-07 23:29 32.20238 -81.35271 1250 ft 232 kts 295°
2026-05-07 23:30 32.21016 -81.36924 1494 ft 228 kts 295°
2026-05-07 23:30 32.21834 -81.38582 1751 ft 237 kts 296°
2026-05-07 23:30 32.22619 -81.40161 1996 ft 226 kts 296°
2026-05-07 23:30 32.23421 -81.41817 2366 ft 232 kts 295°
2026-05-07 23:31 32.24215 -81.43462 2731 ft 233 kts 295°
2026-05-07 23:31 32.25033 -81.45152 3100 ft 239 kts 295°
2026-05-07 23:31 32.25864 -81.46862 3465 ft 241 kts 295°
2026-05-07 23:31 32.26701 -81.48586 3831 ft 242 kts 295°
2026-05-07 23:32 32.27492 -81.50204 4196 ft 206 kts 295°
2026-05-07 23:32 32.28153 -81.51558 4553 ft 177 kts 294°
2026-05-07 23:32 32.28747 -81.52806 4901 ft 186 kts 295°
2026-05-07 23:32 32.29428 -81.54236 5276 ft 211 kts 296°
2026-05-07 23:33 32.30200 -81.55774 5652 ft 223 kts 296°
2026-05-07 23:33 32.30969 -81.57400 6028 ft 230 kts 295°
2026-05-07 23:33 32.31766 -81.59070 6384 ft 236 kts 296°
2026-05-07 23:33 32.32604 -81.60802 6417 ft 249 kts 296°
2026-05-07 23:34 32.33470 -81.62588 6430 ft 240 kts 296°
2026-05-07 23:34 32.34240 -81.64159 6434 ft 206 kts 296°
2026-05-07 23:34 32.34907 -81.65558 6415 ft 186 kts 295°
2026-05-07 23:34 32.35499 -81.66842 6402 ft 175 kts 292°
2026-05-07 23:35 32.36067 -81.68272 6399 ft 204 kts 292°
2026-05-07 23:35 32.36751 -81.69834 6424 ft 222 kts 295°
2026-05-07 23:35 32.37640 -81.71394 6426 ft 235 kts 303°
2026-05-07 23:35 32.38551 -81.73047 6427 ft 244 kts 297°
2026-05-07 23:36 32.39395 -81.74842 6424 ft 253 kts 295°
2026-05-07 23:36 32.40214 -81.76566 6415 ft 241 kts 296°
2026-05-07 23:36 32.41062 -81.78336 6419 ft 246 kts 296°
2026-05-07 23:36 32.41899 -81.80065 6416 ft 240 kts 296°
2026-05-07 23:37 32.42717 -81.81768 6412 ft 237 kts 296°
2026-05-07 23:37 32.43516 -81.83437 6412 ft 236 kts 296°
2026-05-07 23:37 32.44333 -81.85143 6412 ft 235 kts 296°
2026-05-07 23:37 32.45139 -81.86821 6411 ft 234 kts 296°
2026-05-07 23:38 32.45940 -81.88492 6413 ft 233 kts 296°
2026-05-07 23:38 32.46734 -81.90158 6410 ft 232 kts 295°
2026-05-07 23:38 32.47519 -81.91802 6410 ft 233 kts 296°
2026-05-07 23:38 32.48324 -81.93472 6432 ft 233 kts 296°
2026-05-07 23:39 32.49120 -81.95143 6434 ft 233 kts 296°
2026-05-07 23:39 32.49922 -81.96811 6434 ft 233 kts 296°
2026-05-07 23:39 32.50724 -81.98484 6434 ft 234 kts 296°
2026-05-07 23:39 32.51524 -82.00162 6435 ft 234 kts 296°
2026-05-07 23:40 32.52324 -82.01837 6435 ft 234 kts 296°
2026-05-07 23:40 32.53125 -82.03516 6436 ft 234 kts 296°
2026-05-07 23:40 32.53929 -82.05197 6434 ft 235 kts 296°
2026-05-07 23:40 32.54730 -82.06878 6434 ft 234 kts 296°
2026-05-07 23:41 32.55531 -82.08557 6432 ft 234 kts 296°
2026-05-07 23:41 32.56325 -82.10226 6429 ft 231 kts 295°
2026-05-07 23:41 32.57126 -82.11868 6427 ft 229 kts 297°
2026-05-07 23:41 32.57923 -82.13500 6410 ft 229 kts 296°
2026-05-07 23:42 32.58694 -82.15157 6410 ft 230 kts 295°
2026-05-07 23:42 32.59463 -82.16829 6408 ft 232 kts 295°
2026-05-07 23:42 32.60260 -82.18500 6409 ft 233 kts 296°
2026-05-07 23:42 32.61064 -82.20176 6408 ft 234 kts 296°
2026-05-07 23:43 32.61860 -82.21857 6406 ft 234 kts 295°
2026-05-07 23:43 32.62659 -82.23540 6406 ft 234 kts 296°
2026-05-07 23:43 32.63458 -82.25224 6406 ft 234 kts 295°
2026-05-07 23:43 32.64257 -82.26910 6406 ft 234 kts 295°
2026-05-07 23:44 32.65057 -82.28596 6412 ft 234 kts 296°
2026-05-07 23:44 32.65857 -82.30279 6420 ft 234 kts 295°
2026-05-07 23:44 32.66655 -82.31963 6419 ft 234 kts 295°
2026-05-07 23:44 32.67452 -82.33646 6418 ft 234 kts 295°
2026-05-07 23:45 32.68248 -82.35329 6420 ft 234 kts 295°
2026-05-07 23:45 32.69042 -82.37010 6420 ft 234 kts 295°
2026-05-07 23:45 32.69838 -82.38695 6419 ft 234 kts 295°
2026-05-07 23:45 32.70636 -82.40379 6426 ft 234 kts 296°
2026-05-07 23:46 32.71433 -82.42064 6419 ft 234 kts 296°
2026-05-07 23:46 32.72228 -82.43750 6419 ft 234 kts 296°
2026-05-07 23:46 32.73025 -82.45437 6421 ft 234 kts 296°
2026-05-07 23:46 32.73811 -82.47103 6417 ft 234 kts 296°
2026-05-07 23:47 32.74617 -82.48813 6418 ft 234 kts 296°
2026-05-07 23:47 32.75403 -82.50478 6418 ft 234 kts 296°
2026-05-07 23:47 32.76198 -82.52167 6419 ft 234 kts 296°
2026-05-07 23:47 32.76994 -82.53858 6418 ft 234 kts 296°
2026-05-07 23:48 32.77790 -82.55547 6416 ft 234 kts 296°
2026-05-07 23:48 32.78586 -82.57239 6418 ft 234 kts 296°
2026-05-07 23:48 32.79382 -82.58931 6418 ft 234 kts 295°
2026-05-07 23:48 32.80176 -82.60623 6419 ft 234 kts 296°
2026-05-07 23:49 32.80973 -82.62314 6421 ft 234 kts 296°
2026-05-07 23:49 32.81767 -82.64006 6421 ft 234 kts 296°
2026-05-07 23:49 32.82561 -82.65696 6421 ft 234 kts 296°
2026-05-07 23:49 32.83356 -82.67388 6421 ft 234 kts 296°
2026-05-07 23:50 32.84149 -82.69079 6421 ft 234 kts 296°
2026-05-07 23:50 32.84942 -82.70772 6424 ft 234 kts 296°
2026-05-07 23:50 32.85735 -82.72464 6423 ft 234 kts 296°
2026-05-07 23:50 32.86515 -82.74133 6423 ft 234 kts 296°
2026-05-07 23:51 32.87318 -82.75847 6418 ft 234 kts 295°
2026-05-07 23:51 32.88100 -82.77517 6418 ft 234 kts 295°
2026-05-07 23:51 32.88893 -82.79212 6415 ft 235 kts 296°
2026-05-07 23:51 32.89689 -82.80913 6415 ft 236 kts 296°
2026-05-07 23:52 32.90487 -82.82618 6416 ft 236 kts 296°
2026-05-07 23:52 32.91283 -82.84325 6416 ft 236 kts 296°
2026-05-07 23:52 32.92080 -82.86035 6418 ft 236 kts 296°
2026-05-07 23:52 32.92878 -82.87744 6420 ft 236 kts 296°
2026-05-07 23:53 32.93672 -82.89452 6422 ft 236 kts 296°
2026-05-07 23:53 32.94468 -82.91159 6421 ft 236 kts 296°
2026-05-07 23:53 32.95266 -82.92865 6421 ft 236 kts 296°
2026-05-07 23:53 32.96061 -82.94571 6434 ft 236 kts 296°
2026-05-07 23:54 32.96859 -82.96279 6429 ft 236 kts 296°
2026-05-07 23:54 32.97651 -82.97988 6428 ft 235 kts 296°
2026-05-07 23:54 32.98444 -82.99692 6428 ft 235 kts 296°
2026-05-07 23:54 32.99236 -83.01394 6435 ft 235 kts 296°
2026-05-07 23:55 33.00028 -83.03102 6433 ft 236 kts 296°
2026-05-07 23:55 33.00820 -83.04810 6433 ft 236 kts 296°
2026-05-07 23:55 33.01614 -83.06520 6432 ft 236 kts 296°
2026-05-07 23:55 33.02409 -83.08228 6432 ft 236 kts 296°
2026-05-07 23:56 33.03202 -83.09938 6434 ft 236 kts 296°
2026-05-07 23:56 33.04021 -83.11704 6435 ft 235 kts 296°
2026-05-07 23:56 33.04862 -83.13522 6447 ft 235 kts 296°
2026-05-07 23:56 33.05673 -83.15278 6449 ft 236 kts 296°
2026-05-07 23:57 33.06485 -83.17029 6450 ft 236 kts 296°
2026-05-07 23:57 33.07280 -83.18743 6451 ft 236 kts 296°
2026-05-07 23:57 33.08073 -83.20460 6453 ft 237 kts 296°
2026-05-07 23:57 33.08867 -83.22181 6449 ft 237 kts 296°
2026-05-07 23:58 33.09662 -83.23899 6448 ft 237 kts 296°
2026-05-07 23:58 33.10456 -83.25616 6449 ft 236 kts 296°
2026-05-07 23:58 33.11237 -83.27311 6449 ft 236 kts 296°
2026-05-07 23:58 33.12041 -83.29052 6449 ft 236 kts 296°
2026-05-07 23:59 33.12822 -83.30748 6450 ft 237 kts 296°
2026-05-07 23:59 33.13615 -83.32467 6449 ft 236 kts 296°
2026-05-07 23:59 33.14407 -83.34185 6449 ft 236 kts 296°
2026-05-07 23:59 33.15197 -83.35905 6449 ft 236 kts 296°
2026-05-08 00:00 33.15989 -83.37623 6446 ft 236 kts 296°
2026-05-08 00:00 33.16779 -83.39342 6444 ft 236 kts 296°
2026-05-08 00:00 33.17569 -83.41061 6444 ft 236 kts 296°
2026-05-08 00:00 33.18103 -83.42221 6443 ft 236 kts 296°
2026-05-08 00:01 33.18883 -83.43915 6433 ft 236 kts 296°
2026-05-08 00:01 33.19674 -83.45635 6434 ft 236 kts 296°
2026-05-08 00:01 33.20463 -83.47357 6442 ft 236 kts 296°
2026-05-08 00:01 33.21252 -83.49079 6442 ft 236 kts 296°
2026-05-08 00:02 33.22042 -83.50802 6446 ft 236 kts 296°
2026-05-08 00:02 33.22831 -83.52525 6444 ft 237 kts 296°
2026-05-08 00:02 33.23621 -83.54250 6445 ft 237 kts 296°
2026-05-08 00:02 33.24415 -83.55980 6446 ft 238 kts 296°
2026-05-08 00:03 33.25208 -83.57713 6440 ft 238 kts 295°
2026-05-08 00:03 33.26001 -83.59449 6440 ft 238 kts 295°
2026-05-08 00:03 33.26794 -83.61184 6445 ft 238 kts 296°
2026-05-08 00:03 33.27587 -83.62918 6445 ft 238 kts 296°
2026-05-08 00:04 33.28380 -83.64652 6448 ft 238 kts 296°
2026-05-08 00:04 33.29171 -83.66386 6448 ft 238 kts 296°
2026-05-08 00:04 33.29963 -83.68121 6447 ft 238 kts 295°
2026-05-08 00:04 33.30753 -83.69858 6449 ft 238 kts 296°
2026-05-08 00:05 33.31546 -83.71593 6451 ft 238 kts 295°
2026-05-08 00:05 33.32334 -83.73327 6459 ft 238 kts 295°
2026-05-08 00:05 33.33125 -83.75062 6459 ft 238 kts 296°
2026-05-08 00:05 33.33916 -83.76796 6468 ft 238 kts 295°
2026-05-08 00:06 33.34708 -83.78534 6463 ft 238 kts 295°
2026-05-08 00:06 33.35497 -83.80271 6464 ft 238 kts 295°
2026-05-08 00:06 33.36278 -83.81990 6469 ft 219 kts 295°
2026-05-08 00:06 33.36965 -83.83498 6455 ft 219 kts 294°
2026-05-08 00:07 33.37739 -83.85155 6469 ft 242 kts 297°
2026-05-08 00:07 33.38508 -83.87008 6477 ft 238 kts 291°
2026-05-08 00:07 33.39172 -83.88832 6471 ft 252 kts 292°
2026-05-08 00:07 33.40006 -83.90637 6478 ft 230 kts 297°
2026-05-08 00:08 33.40821 -83.92228 6473 ft 223 kts 298°
2026-05-08 00:08 33.41539 -83.93593 6470 ft 174 kts 298°
2026-05-08 00:08 33.42214 -83.94860 6217 ft 191 kts 298°
2026-05-08 00:08 33.42941 -83.96248 5971 ft 202 kts 298°
2026-05-08 00:09 33.43694 -83.97702 5724 ft 208 kts 298°
2026-05-08 00:09 33.44498 -83.99135 5477 ft 199 kts 309°
2026-05-08 00:09 33.45634 -83.99895 5217 ft 188 kts 333°
2026-05-08 00:09 33.47061 -84.00550 4983 ft 232 kts 333°
2026-05-08 00:10 33.48498 -84.01217 4753 ft 214 kts 333°
2026-05-08 00:10 33.49876 -84.01863 4507 ft 200 kts 333°
2026-05-08 00:10 33.51077 -84.02321 4466 ft 169 kts 349°
2026-05-08 00:10 33.52315 -84.01945 4484 ft 208 kts 15°
2026-05-08 00:11 33.53704 -84.01335 4494 ft 217 kts 14°
2026-05-08 00:11 33.55014 -84.00970 4468 ft 173 kts 348°
2026-05-08 00:11 33.56064 -84.01526 4475 ft 163 kts 323°
2026-05-08 00:11 33.57032 -84.02228 4477 ft 166 kts 324°
2026-05-08 00:12 33.58024 -84.02950 4489 ft 161 kts 324°
2026-05-08 00:12 33.58973 -84.03640 4485 ft 150 kts 324°
2026-05-08 00:12 33.59891 -84.04296 4475 ft 161 kts 324°
2026-05-08 00:12 33.60860 -84.05000 4482 ft 164 kts 324°
2026-05-08 00:13 33.61828 -84.05703 4480 ft 163 kts 324°
2026-05-08 00:13 33.62797 -84.06397 4486 ft 161 kts 324°
2026-05-08 00:13 33.63772 -84.07104 4309 ft 166 kts 324°
2026-05-08 00:13 33.64745 -84.07831 4060 ft 170 kts 324°
2026-05-08 00:14 33.65464 -84.08852 3945 ft 178 kts 277°
2026-05-08 00:14 33.65171 -84.10540 3867 ft 229 kts 254°
2026-05-08 00:14 33.64649 -84.12379 4509 ft 230 kts 252°
2026-05-08 00:14 33.63989 -84.14116 4865 ft 246 kts 251°
2026-05-08 00:15 33.63470 -84.16038 4078 ft 232 kts 259°
2026-05-08 00:15 33.63388 -84.17614 4664 ft 141 kts 266°
2026-05-08 00:15 33.63345 -84.18710 4767 ft 126 kts 272°
2026-05-08 00:15 33.63579 -84.19691 4561 ft 135 kts 289°
2026-05-08 00:16 33.63878 -84.20766 4335 ft 133 kts 288°
2026-05-08 00:16 33.64204 -84.21791 4164 ft 126 kts 285°
2026-05-08 00:16 33.64047 -84.22796 3969 ft 128 kts 239°
2026-05-08 00:16 33.63711 -84.23686 3857 ft 114 kts 255°
2026-05-08 00:17 33.63379 -84.24586 3606 ft 118 kts 254°
2026-05-08 00:17 33.63134 -84.25443 3524 ft 104 kts 255°
2026-05-08 00:17 33.63179 -84.26227 3385 ft 95 kts 302°
2026-05-08 00:17 33.63482 -84.26937 3093 ft 96 kts 294°
2026-05-08 00:18 33.63747 -84.27667 2850 ft 95 kts 291°
2026-05-08 00:18 33.64009 -84.28375 2642 ft 91 kts 297°
2026-05-08 00:18 33.64298 -84.29067 2509 ft 93 kts 295°
2026-05-08 00:18 33.64490 -84.29831 2299 ft 100 kts 288°
2026-05-08 00:19 33.64595 -84.30666 2078 ft 105 kts 278°
2026-05-08 00:19 33.64619 -84.31501 2035 ft 96 kts 276°
2026-05-08 00:19 33.64642 -84.32335 1860 ft 100 kts 283°
2026-05-08 00:19 33.64791 -84.33127 1759 ft 96 kts 284°
2026-05-08 00:20 33.64883 -84.33929 1612 ft 99 kts 278°
2026-05-08 00:20 33.64908 -84.34740 1533 ft 95 kts 275°
2026-05-08 00:20 33.64907 -84.35541 1515 ft 105 kts 274°
2026-05-08 00:20 33.64908 -84.36378 1514 ft 105 kts 275°
2026-05-08 00:21 33.64910 -84.37184 1445 ft 91 kts 273°
2026-05-08 00:21 33.64873 -84.37886 1290 ft 76 kts 279°
2026-05-08 00:21 33.64901 -84.38665 1261 ft 95 kts 277°
2026-05-08 00:21 33.64935 -84.39504 1269 ft 106 kts 275°
2026-05-08 00:22 33.64942 -84.40320 1136 ft 91 kts 273°
2026-05-08 00:22 33.64953 -84.41027 1041 ft 77 kts 270°
2026-05-08 00:22 33.64950 -84.41629 1006 ft 70 kts 270°
2026-05-08 00:22 33.64950 -84.42031 1001 ft 20 kts 270°
2026-05-08 00:23 33.64965 -84.42185 1001 ft 8 kts 290°
2026-05-08 00:23 33.64998 -84.42233 1001 ft 5 kts 326°
2026-05-08 00:23 33.65014 -84.42240 1001 ft 6 kts 352°
2026-05-08 00:23 33.65052 -84.42252 1001 ft 8 kts
2026-05-08 00:24 33.65139 -84.42240 1000 ft 12 kts 343°
2026-05-08 00:24 33.65156 -84.42312 1001 ft 0 kts 290°
2026-05-08 00:24 33.65170 -84.42321 1001 ft 12 kts 328°
2026-05-08 00:24 33.65242 -84.42387 1000 ft 0 kts